NKS3A KEWR-KDTW

Flight info

Callsign NKS3A
Flight time N/A
Altitude 34000
Route GAYEL J95 CFB TRAAD JACCI FERRL2
Aircraft A20N/M-SDE2E3FGHIRWXY/LB1

Departure

Time N/A
Airport Newark Liberty International Airport (KEWR)

Arrival

Time 2026-05-06 11:14
Airport Detroit Metropolitan Wayne County Airport (KDTW)
Time Latitude Longitude Altitude Speed Heading
2026-05-06 10:08 41.76324 -75.18840 28256 ft 430 kts 294°
2026-05-06 10:08 41.77793 -75.22318 28801 ft 427 kts 294°
2026-05-06 10:08 41.79252 -75.25777 29321 ft 425 kts 294°
2026-05-06 10:08 41.80701 -75.29216 29857 ft 423 kts 294°
2026-05-06 10:09 41.82144 -75.32646 30378 ft 421 kts 294°
2026-05-06 10:09 41.83575 -75.36048 30918 ft 417 kts 294°
2026-05-06 10:09 41.84994 -75.39424 31445 ft 414 kts 294°
2026-05-06 10:09 41.86399 -75.42772 31985 ft 409 kts 294°
2026-05-06 10:10 41.87790 -75.46089 32508 ft 406 kts 294°
2026-05-06 10:10 41.89166 -75.49376 33033 ft 401 kts 294°
2026-05-06 10:10 41.90528 -75.52632 33500 ft 398 kts 294°
2026-05-06 10:10 41.91882 -75.55876 33780 ft 399 kts 294°
2026-05-06 10:11 41.94565 -75.62320 33823 ft 396 kts 294°
2026-05-06 10:11 41.97251 -75.68778 33821 ft 395 kts 294°
2026-05-06 10:12 41.99926 -75.75222 33814 ft 395 kts 294°
2026-05-06 10:12 42.02596 -75.81670 33814 ft 394 kts 294°
2026-05-06 10:13 42.05264 -75.88123 33813 ft 395 kts 294°
2026-05-06 10:13 42.07928 -75.94581 33806 ft 394 kts 294°
2026-05-06 10:14 42.10138 -75.99949 33804 ft 394 kts 294°
2026-05-06 10:14 42.12793 -76.06413 33804 ft 394 kts 294°
2026-05-06 10:15 42.15136 -76.13045 33804 ft 389 kts 284°
2026-05-06 10:15 42.16259 -76.20106 33808 ft 385 kts 275°
2026-05-06 10:16 42.16874 -76.27269 33812 ft 384 kts 274°
2026-05-06 10:16 42.17391 -76.34434 33813 ft 384 kts 273°
2026-05-06 10:17 42.17911 -76.41598 33814 ft 384 kts 273°
2026-05-06 10:17 42.18443 -76.48760 33824 ft 383 kts 273°
2026-05-06 10:18 42.18977 -76.55909 33823 ft 383 kts 273°
2026-05-06 10:18 42.19508 -76.63051 33822 ft 382 kts 273°
2026-05-06 10:19 42.20033 -76.70178 33822 ft 382 kts 273°
2026-05-06 10:19 42.20552 -76.77305 33817 ft 382 kts 272°
2026-05-06 10:20 42.21066 -76.84428 33813 ft 381 kts 272°
2026-05-06 10:20 42.21575 -76.91556 33812 ft 381 kts 272°
2026-05-06 10:21 42.22077 -76.98623 33812 ft 381 kts 272°
2026-05-06 10:21 42.22581 -77.05772 33813 ft 380 kts 272°
2026-05-06 10:22 42.23075 -77.12864 33822 ft 380 kts 271°
2026-05-06 10:22 42.23565 -77.19970 33822 ft 380 kts 271°
2026-05-06 10:23 42.24047 -77.27017 33824 ft 380 kts 271°
2026-05-06 10:23 42.24532 -77.34158 33823 ft 379 kts 271°
2026-05-06 10:24 42.25007 -77.41217 33824 ft 380 kts 271°
2026-05-06 10:24 42.25481 -77.48363 33824 ft 379 kts 271°
2026-05-06 10:25 42.26353 -77.55387 33824 ft 384 kts 277°
2026-05-06 10:25 42.27570 -77.62412 33818 ft 384 kts 278°
2026-05-06 10:26 42.28847 -77.69427 33824 ft 384 kts 278°
2026-05-06 10:26 42.30122 -77.76440 33822 ft 384 kts 278°
2026-05-06 10:27 42.31385 -77.83461 33813 ft 385 kts 278°
2026-05-06 10:27 42.32650 -77.90553 33813 ft 385 kts 278°
2026-05-06 10:28 42.33899 -77.97594 33812 ft 385 kts 277°
2026-05-06 10:28 42.35141 -78.04629 33813 ft 385 kts 277°
2026-05-06 10:29 42.36384 -78.11673 33814 ft 384 kts 277°
2026-05-06 10:29 42.37619 -78.18696 33812 ft 384 kts 277°
2026-05-06 10:30 42.38844 -78.25702 33814 ft 384 kts 277°
2026-05-06 10:30 42.40070 -78.32745 33812 ft 384 kts 277°
2026-05-06 10:31 42.41291 -78.39775 33812 ft 384 kts 277°
2026-05-06 10:31 42.42506 -78.46813 33813 ft 384 kts 277°
2026-05-06 10:32 42.43717 -78.53843 33813 ft 383 kts 277°
2026-05-06 10:32 42.44924 -78.60876 33814 ft 383 kts 277°
2026-05-06 10:33 42.46124 -78.67900 33822 ft 382 kts 277°
2026-05-06 10:33 42.46814 -78.74944 33824 ft 373 kts 265°
2026-05-06 10:34 42.46647 -78.81963 33832 ft 373 kts 264°
2026-05-06 10:34 42.46401 -78.88975 33834 ft 372 kts 264°
2026-05-06 10:35 42.46145 -78.95933 33830 ft 372 kts 263°
2026-05-06 10:35 42.46076 -79.02946 33834 ft 375 kts 269°
2026-05-06 10:36 42.46337 -79.09994 33834 ft 375 kts 269°
2026-05-06 10:36 42.46653 -79.17048 33842 ft 375 kts 269°
2026-05-06 10:37 42.46961 -79.24089 33842 ft 374 kts 269°
2026-05-06 10:37 42.47257 -79.31122 33841 ft 374 kts 269°
2026-05-06 10:38 42.47548 -79.38161 33841 ft 374 kts 269°
2026-05-06 10:38 42.47833 -79.45195 33841 ft 374 kts 269°
2026-05-06 10:39 42.48114 -79.52242 33841 ft 374 kts 269°
2026-05-06 10:39 42.48390 -79.59286 33841 ft 374 kts 269°
2026-05-06 10:40 42.48662 -79.66323 33841 ft 374 kts 269°
2026-05-06 10:40 42.48930 -79.73359 33841 ft 374 kts 269°
2026-05-06 10:41 42.49193 -79.80406 33841 ft 374 kts 269°
2026-05-06 10:41 42.49450 -79.87403 33841 ft 374 kts 269°
2026-05-06 10:42 42.49705 -79.94443 33841 ft 374 kts 269°
2026-05-06 10:42 42.49956 -80.01482 33841 ft 374 kts 268°
2026-05-06 10:43 42.50202 -80.08533 33841 ft 374 kts 268°
2026-05-06 10:44 42.50564 -80.19121 33851 ft 374 kts 268°
2026-05-06 10:44 42.50799 -80.26161 33850 ft 374 kts 268°
2026-05-06 10:45 42.51030 -80.33210 33851 ft 374 kts 268°
2026-05-06 10:45 42.51257 -80.40249 33842 ft 374 kts 268°
2026-05-06 10:46 42.51479 -80.47299 33841 ft 374 kts 268°
2026-05-06 10:46 42.51588 -80.50821 33730 ft 373 kts 268°
2026-05-06 10:46 42.51697 -80.54336 33484 ft 372 kts 268°
2026-05-06 10:46 42.51804 -80.57844 33232 ft 373 kts 268°
2026-05-06 10:47 42.51903 -80.61364 32975 ft 374 kts 267°
2026-05-06 10:47 42.51957 -80.64902 32732 ft 375 kts 266°
2026-05-06 10:47 42.51997 -80.68440 32481 ft 376 kts 266°
2026-05-06 10:47 42.52034 -80.71993 32233 ft 378 kts 266°
2026-05-06 10:48 42.52070 -80.75554 31932 ft 375 kts 266°
2026-05-06 10:48 42.52106 -80.79066 31432 ft 371 kts 265°
2026-05-06 10:48 42.52139 -80.82563 30834 ft 370 kts 265°
2026-05-06 10:48 42.52172 -80.86042 30243 ft 369 kts 265°
2026-05-06 10:49 42.52203 -80.89519 29636 ft 368 kts 265°
2026-05-06 10:49 42.52233 -80.92987 29009 ft 367 kts 265°
2026-05-06 10:49 42.52261 -80.96451 28368 ft 367 kts 265°
2026-05-06 10:49 42.52288 -80.99919 27707 ft 369 kts 265°
2026-05-06 10:50 42.52315 -81.03423 27031 ft 373 kts 266°
2026-05-06 10:50 42.52341 -81.06954 26347 ft 376 kts 266°
2026-05-06 10:50 42.52366 -81.10475 25619 ft 380 kts 266°
2026-05-06 10:50 42.52392 -81.14027 25298 ft 371 kts 266°
2026-05-06 10:51 42.52421 -81.17445 25216 ft 355 kts 266°
2026-05-06 10:51 42.52445 -81.20715 25147 ft 339 kts 266°
2026-05-06 10:51 42.52466 -81.23851 25045 ft 326 kts 266°
2026-05-06 10:51 42.52484 -81.26875 24900 ft 316 kts 266°
2026-05-06 10:52 42.52499 -81.29839 24629 ft 315 kts 266°
2026-05-06 10:52 42.52507 -81.31850 24354 ft 316 kts 266°
2026-05-06 10:52 42.52518 -81.35799 23920 ft 321 kts 265°
2026-05-06 10:52 42.52446 -81.37871 23732 ft 331 kts 263°
2026-05-06 10:53 42.52168 -81.42033 23147 ft 336 kts 261°
2026-05-06 10:53 42.52010 -81.44154 22889 ft 334 kts 261°
2026-05-06 10:53 42.51777 -81.47235 22519 ft 331 kts 261°
2026-05-06 10:53 42.51545 -81.50323 22147 ft 328 kts 261°
2026-05-06 10:54 42.51313 -81.53397 21769 ft 327 kts 262°
2026-05-06 10:54 42.51082 -81.56457 21395 ft 325 kts 262°
2026-05-06 10:54 42.50852 -81.59500 21026 ft 323 kts 262°
2026-05-06 10:54 42.50622 -81.62528 20653 ft 322 kts 262°
2026-05-06 10:55 42.50393 -81.65534 20295 ft 320 kts 262°
2026-05-06 10:55 42.50165 -81.68527 19926 ft 319 kts 262°
2026-05-06 10:55 42.49937 -81.71510 19562 ft 317 kts 262°
2026-05-06 10:55 42.49709 -81.74475 19203 ft 315 kts 262°
2026-05-06 10:56 42.49482 -81.77420 18850 ft 313 kts 262°
2026-05-06 10:56 42.49256 -81.80347 18494 ft 311 kts 263°
2026-05-06 10:56 42.49031 -81.83247 18147 ft 309 kts 263°
2026-05-06 10:56 42.48808 -81.86100 17799 ft 308 kts 263°
2026-05-06 10:57 42.48583 -81.88978 17448 ft 307 kts 263°
2026-05-06 10:57 42.48358 -81.91843 17098 ft 306 kts 263°
2026-05-06 10:57 42.48133 -81.94700 16750 ft 305 kts 263°
2026-05-06 10:57 42.47908 -81.97559 16401 ft 305 kts 262°
2026-05-06 10:58 42.47682 -82.00407 16053 ft 304 kts 262°
2026-05-06 10:58 42.47456 -82.03251 15708 ft 304 kts 262°
2026-05-06 10:58 42.47229 -82.06102 15361 ft 303 kts 262°
2026-05-06 10:58 42.47002 -82.08934 15013 ft 303 kts 262°
2026-05-06 10:59 42.46775 -82.11767 14669 ft 302 kts 262°
2026-05-06 10:59 42.46547 -82.14597 14323 ft 301 kts 262°
2026-05-06 10:59 42.46320 -82.17414 14035 ft 301 kts 262°
2026-05-06 10:59 42.46092 -82.20230 13739 ft 301 kts 262°
2026-05-06 11:00 42.45864 -82.23044 13395 ft 300 kts 262°
2026-05-06 11:00 42.45634 -82.25858 13051 ft 300 kts 262°
2026-05-06 11:00 42.45407 -82.28637 12717 ft 300 kts 261°
2026-05-06 11:00 42.45175 -82.31436 12426 ft 295 kts 261°
2026-05-06 11:01 42.44896 -82.34130 12209 ft 283 kts 259°
2026-05-06 11:01 42.44592 -82.36725 11908 ft 276 kts 258°
2026-05-06 11:01 42.44288 -82.39259 11591 ft 270 kts 258°
2026-05-06 11:01 42.43987 -82.41744 11279 ft 264 kts 259°
2026-05-06 11:02 42.43691 -82.44189 10970 ft 263 kts 259°
2026-05-06 11:02 42.43394 -82.46636 10664 ft 264 kts 259°
2026-05-06 11:02 42.43094 -82.49103 10370 ft 266 kts 259°
2026-05-06 11:02 42.42793 -82.51577 10066 ft 267 kts 260°
2026-05-06 11:03 42.42491 -82.54060 9647 ft 267 kts 260°
2026-05-06 11:03 42.42188 -82.56541 9310 ft 267 kts 261°
2026-05-06 11:03 42.41884 -82.59036 9017 ft 269 kts 261°
2026-05-06 11:03 42.41577 -82.61542 8701 ft 271 kts 261°
2026-05-06 11:04 42.41272 -82.64026 8401 ft 270 kts 261°
2026-05-06 11:04 42.40960 -82.66566 8089 ft 270 kts 262°
2026-05-06 11:04 42.40655 -82.69035 7774 ft 269 kts 262°
2026-05-06 11:04 42.40347 -82.71531 7476 ft 269 kts 262°
2026-05-06 11:05 42.40039 -82.74027 7170 ft 268 kts 262°
2026-05-06 11:05 42.39806 -82.76512 6964 ft 266 kts 270°
2026-05-06 11:05 42.40091 -82.78954 6790 ft 263 kts 291°
2026-05-06 11:05 42.40871 -82.81191 6675 ft 263 kts 298°
2026-05-06 11:06 42.41762 -82.83351 6563 ft 263 kts 300°
2026-05-06 11:06 42.42670 -82.85505 6443 ft 262 kts 300°
2026-05-06 11:06 42.43546 -82.87596 6326 ft 249 kts 300°
2026-05-06 11:06 42.44377 -82.89592 6210 ft 238 kts 300°
2026-05-06 11:07 42.45145 -82.91517 6063 ft 228 kts 295°
2026-05-06 11:07 42.45602 -82.93610 5489 ft 239 kts 278°
2026-05-06 11:07 42.45420 -82.95910 4780 ft 257 kts 252°
2026-05-06 11:07 42.44635 -82.98146 4173 ft 267 kts 243°
2026-05-06 11:08 42.43700 -83.00325 3718 ft 268 kts 241°
2026-05-06 11:08 42.42745 -83.02486 3300 ft 267 kts 241°
2026-05-06 11:08 42.41792 -83.04640 2881 ft 266 kts 241°
2026-05-06 11:08 42.40856 -83.06760 2672 ft 256 kts 241°
2026-05-06 11:09 42.39961 -83.08797 2519 ft 248 kts 240°
2026-05-06 11:09 42.39081 -83.10803 2497 ft 248 kts 240°
2026-05-06 11:09 42.38201 -83.12810 2492 ft 249 kts 240°
2026-05-06 11:09 42.37317 -83.14826 2489 ft 249 kts 240°
2026-05-06 11:10 42.36434 -83.16836 2488 ft 249 kts 239°
2026-05-06 11:10 42.35548 -83.18850 2489 ft 249 kts 240°
2026-05-06 11:10 42.34685 -83.20810 2489 ft 234 kts 240°
2026-05-06 11:10 42.33854 -83.22593 2490 ft 219 kts 237°
2026-05-06 11:11 42.32926 -83.24209 2499 ft 214 kts 231°
2026-05-06 11:11 42.31877 -83.25639 2497 ft 215 kts 223°
2026-05-06 11:11 42.30690 -83.26890 2499 ft 217 kts 216°
2026-05-06 11:11 42.29378 -83.27923 2349 ft 220 kts 209°
2026-05-06 11:12 42.28031 -83.28905 2045 ft 220 kts 211°
2026-05-06 11:12 42.26690 -83.29910 1729 ft 221 kts 210°
2026-05-06 11:12 42.25367 -83.30892 1454 ft 209 kts 210°
2026-05-06 11:12 42.24142 -83.31797 1175 ft 193 kts 210°
2026-05-06 11:13 42.23027 -83.32622 932 ft 173 kts 210°
2026-05-06 11:13 42.22020 -83.33366 700 ft 157 kts 210°
2026-05-06 11:13 42.21133 -83.34034 651 ft 127 kts 210°
2026-05-06 11:13 42.20566 -83.34442 650 ft 72 kts 208°
2026-05-06 11:14 42.20235 -83.34689 650 ft 30 kts 207°
2026-05-06 11:14 42.20185 -83.34852 650 ft 17 kts 269°
2026-05-06 11:14 42.20264 -83.34914 650 ft 15 kts 27°
2026-05-06 11:14 42.20362 -83.34844 652 ft 17 kts 27°
2026-05-06 11:15 42.20474 -83.34768 651 ft 19 kts 26°
2026-05-06 11:15 42.20599 -83.34688 651 ft 21 kts 25°
2026-05-06 11:15 42.20716 -83.34595 650 ft 17 kts 36°
2026-05-06 11:15 42.20786 -83.34529 650 ft 0 kts 29°
2026-05-06 11:18 42.20788 -83.34528 650 ft 4 kts 29°
2026-05-06 11:19 42.20874 -83.34465 652 ft 15 kts 28°
2026-05-06 11:19 42.20969 -83.34397 650 ft 13 kts 28°
2026-05-06 11:19 42.21015 -83.34387 650 ft 9 kts 335°
2026-05-06 11:19 42.21059 -83.34477 650 ft 15 kts 299°
2026-05-06 11:20 42.21112 -83.34604 650 ft 15 kts 299°
2026-05-06 11:20 42.21164 -83.34732 649 ft 15 kts 299°
2026-05-06 11:20 42.21203 -83.34826 646 ft 15 kts 298°
2026-05-06 11:20 42.21241 -83.34920 649 ft 8 kts 306°
2026-05-06 11:21 42.21286 -83.34929 648 ft 12 kts
2026-05-06 11:21 42.21351 -83.34965 653 ft 15 kts 328°
2026-05-06 11:21 42.21444 -83.35041 649 ft 15 kts 328°
2026-05-06 11:21 42.21513 -83.35098 649 ft 14 kts 330°
2026-05-06 11:22 42.21552 -83.35167 649 ft 7 kts 269°
2026-05-06 11:22 42.21520 -83.35214 649 ft 10 kts 179°
2026-05-06 11:22 42.21469 -83.35212 650 ft 5 kts 194°
2026-05-06 11:22 42.21377 -83.35267 650 ft 15 kts 205°
2026-05-06 11:23 42.21308 -83.35312 650 ft 10 kts 205°
2026-05-06 11:23 42.21242 -83.35358 649 ft 15 kts 208°
2026-05-06 11:23 42.21147 -83.35428 650 ft 15 kts 208°
2026-05-06 11:23 42.21104 -83.35467 649 ft 7 kts 266°
2026-05-06 11:24 42.21118 -83.35518 652 ft 7 kts 299°
2026-05-06 11:24 42.21122 -83.35527 649 ft 1 kts 299°